Content
SEND FEEDBACK

Daily
Averages
Monthly
Summary
Mexico

PUEBLA - JARDINES DE SAN MANUEL, PUEBLA


Home > North America > Mexico > Puebla
Elevation: 6962 feet     Latitude: 19 00N     Longitude: 098 11W

WEATHER
 
SELECT A DAY
Number of Records: 121,093;   Date Range: 1/1/95 - 8/10/14
 
SHARE

PRINT THIS DATA

[ ← Previous Day ]
WEATHER ALMANAC - APRIL 3, 2013
[ Next Day → ]
[ °C ]   °F
Weather ElementAverageHighLow
Temperature68.4 °F82 °F (2:50 pm)46.4 °F (5:44 am)
Dewpoint37.6 °F47 °F (8:50 am)28.4 °F (2:43 pm)
Humidity33.1 %76 % (5:44 am)14 % (5:35 pm)
Barometer30.11 in30.32 in (8:42 am)29.58 in (5:35 pm)
Wind Speed11.2 mph28.8 mph (4:44 pm)
Wind Gust36.8 mph (2:43 pm)
Weather ElementAverage
Visibility7.1 mi
Wind DirectionSSE (160.4 °)

Weather ElementTotal
Precipitation---
Heating Degree Days0.8 (Base 65)
Growing Degree Days14.2 (Base 50)
Averaged from 26 records on April 3, 2013
WEATHER CONDITIONS BREAKOUT
WIND DIRECTION BREAKOUT
WEATHER BY HOUR - APRIL 3, 2013
[ °C ]   °F
Local TimeTemperatureDewpointHumidityBarometerVisibilityWind DirectionWind SpeedGust SpeedPrecipitationEventsConditions
5:44 AM46.4 °F39.2 °F76 %30.25 in8.0 miCalmScattered Clouds
5:58 AM57.0 °F42.0 °F46 %29.72 in3.0 miCalm
6:40 AM48.2 °F39.2 °F71 %30.28 in8.0 miCalmScattered Clouds
7:48 AM55.4 °F41.0 °F58 %30.31 in8.0 miNorth (350°)5.8 mphScattered Clouds
8:42 AM62.6 °F42.8 °F48 %30.32 in8.0 miCalmPartly Cloudy
8:50 AM66.0 °F47.0 °F39 %29.84 in6.0 miSSE (150°)2.2 mphClear
9:42 AM66.2 °F42.8 °F43 %30.32 in8.0 miESE (120°)4.6 mphPartly Cloudy
10:45 AM71.6 °F42.8 °F35 %30.29 in8.0 miSSE (150°)9.2 mphPartly Cloudy
11:45 AM77.0 °F39.2 °F26 %30.27 in8.0 miSSE (160°)15.0 mphPartly Cloudy
11:50 AM77.0 °F47.0 °F23 %29.79 in12.0 miSSE (150°)4.5 mph
12:47 PM78.8 °F33.8 °F20 %30.24 in8.0 miSSE (160°)24.2 mphPartly Cloudy
1:40 PM80.6 °F32.0 °F17 %30.22 in5.0 miSSW (200°)23.0 mphWidespread Dust
2:43 PM78.8 °F28.4 °F16 %30.18 in4.0 miSouth (190°)25.3 mph36.8 mphWidespread Dust
2:50 PM82.0 °F44.0 °F16 %29.67 in9.0 miSSE (150°)13.4 mphHaze
3:45 PM77.0 °F28.4 °F17 %30.16 in5.0 miSouth (190°)25.3 mph36.8 mphWidespread Dust
4:44 PM75.2 °F32.0 °F21 %30.17 in6.0 miSSW (200°)28.8 mphWidespread Dust
5:35 PM78.0 °F38.0 °F14 %29.58 in9.0 miSouth (180°)8.9 mphHaze
5:41 PM75.2 °F32.0 °F21 %30.18 in8.0 miSouth (190°)21.9 mphScattered Clouds
6:40 PM71.6 °F32.0 °F23 %30.21 in8.0 miSSW (200°)18.4 mphPartly Cloudy
7:43 PM69.8 °F30.2 °F23 %30.24 in8.0 miSouth (190°)19.6 mphPartly Cloudy
8:42 PM66.2 °F28.4 °F24 %30.26 in8.0 miSouth (190°)17.3 mphPartly Cloudy
8:45 PM70.0 °F39.0 °F21 %29.61 in3.0 miCalm
9:40 PM64.4 °F35.6 °F34 %30.29 in8.0 miSSW (200°)12.7 mphPartly Cloudy
10:45 PM59.0 °F39.2 °F48 %30.32 in8.0 miSouth (180°)5.8 mphPartly Cloudy
11:40 PM59.0 °F39.2 °F48 %30.32 in8.0 miSouth (190°)5.8 mphPartly Cloudy
11:45 PM65.0 °F43.0 °F33 %29.69 in3.0 miCalm
Hourly data recorded from MMPB, located miles away from Puebla - Jardines de San Manuel, Puebla







STORIES FROM OUR PARTNERS